We konden geen weer-waarchuwingen ophalen. Ga rechtstreeks naar de Meteoalarm site : www.meteoalarm.eu en controleer daar .



Onweer radar Meer informatie blitzortung!


Regen radar Meer informatie rain snow radar


Bezoek onze andere website:

Template documentation
and downloads

And another site



15 daagse weersverwachting Bad Ischl (AT)

  • Overzicht
  • Per uur
  • 15 dagen
  • Extra
  • Vergelijk
  • Kaarten
  • Dagkaart
  • Meer »
  • Info
  • Statistieken
  • Directe link
    Temp 6h Neerslag Wind  
 06:07     20:12    Daglengte: 14:05 Morgen
02:00
18°
 
1
08:00
19°
 
1
14:00
29°
 
2
20:00
24°
 
2
 06:08     20:11    Daglengte: 14:03 Vrijdag 19 Aug
02:00
19°
 
1
08:00
18°
 
1
14:00
23°
5.3 mm
2
warningclass
20:00
18°
36.0 mm
2
warningclass
 06:09     20:09    Daglengte: 14:00 Zaterdag 20 Aug
02:00
17°
101.3 mm
1
08:00
16°
83.6 mm
2
14:00
18°
85.9 mm
1
20:00
17°
 
1
Locatie info
Region: Oberösterreich
Latitude: 47.7120°N
Longitude: 13.6257°E
470 masl
Postcode: 4820
Temp/Neerslag /Baro Onweer/Dauwpunt
    Temp Baro 1h Neerslag Dauwpunt Wind UV Bewolking  
 06:07     20:12    Daglengte: 14:05 Morgen
00:00
19°
1012.5 hPa
13%
17.5°
1
Windvlaag: 2.2 m/s
31%
01:00
19°
1012.8 hPa
13%
16.7°
1
Windvlaag: 2.1 m/s
32%
02:00
18°
1013.0 hPa
13%
16.1°
1
Windvlaag: 1.6 m/s
43%
03:00
18°
1013.0 hPa
13%
15.8°
1
Windvlaag: 1.4 m/s
29%
04:00
17°
1013.0 hPa
13%
15.3°
1
Windvlaag: 1.8 m/s
27%
05:00
17°
1012.9 hPa
13%
14.7°
1
Windvlaag: 1.4 m/s
30%
06:00
16°
1012.6 hPa
13%
14.4°
1
Windvlaag: 1.1 m/s
8%
07:00
17°
1012.6 hPa
13%
14.5°
1
Windvlaag: 1.3 m/s
30%
08:00
19°
1012.5 hPa
13%
15.4°
1
Windvlaag: 1.4 m/s
41%
09:00
22°
1012.0 hPa
13%
11.9°
1
Windvlaag: 1.4 m/s
52%
10:00
24°
1011.5 hPa
13%
8.2°
1
Windvlaag: 2.2 m/s
39%
11:00
26°
Voelt als: 25.8°
1011.1 hPa
14%
4.9°
1
Windvlaag: 2.3 m/s
56%
12:00
28°
Voelt als: 26.9°
1011.3 hPa
65%
5.4°
1
Windvlaag: 2.6 m/s
72%
13:00
29°
Voelt als: 27.8°
1010.7 hPa
82%
6.2°
1
Windvlaag: 3.8 m/s
77%
14:00
29°
Voelt als: 28.1°
1010.3 hPa
60%
10.0°
2
Windvlaag: 5.7 m/s
59%
15:00
29°
Voelt als: 28.1°
1010.4 hPa
70%
11.7°
2
Windvlaag: 5.8 m/s
75%
16:00
29°
Voelt als: 28.0°
1009.1 hPa
82%
11.7°
2
Windvlaag: 7.5 m/s
66%
17:00
29°
Voelt als: 28.0°
1008.9 hPa
25%
11.6°
2
Windvlaag: 8.1 m/s
58%
18:00
28°
Voelt als: 27.5°
1008.7 hPa
14%
12.0°
2
Windvlaag: 7.8 m/s
40%
19:00
27°
1009.1 hPa
14%
13.7°
2
Windvlaag: 5.5 m/s
30%
20:00
24°
1009.9 hPa
14%
14.7°
2
Windvlaag: -3.1 m/s
25%
21:00
22°
1010.9 hPa
14%
17.5°
1
Windvlaag: -2.2 m/s
39%
22:00
20°
1011.0 hPa
14%
16.8°
1
Windvlaag: -1.9 m/s
53%
23:00
20°
1011.0 hPa
14%
16.8°
1
Windvlaag: 1.7 m/s
46%
 06:08     20:11    Daglengte: 14:03 Vrijdag 19 Aug
00:00
19°
1011.2 hPa
14%
16.1°
1
Windvlaag: 2.5 m/s
65%
01:00
19°
1011.8 hPa
14%
16.4°
1
Windvlaag: 0.2 m/s
68%
02:00
19°
1011.6 hPa
15%
16.4°
1
Windvlaag: -0.5 m/s
52%
03:00
18°
1011.8 hPa
14%
16.1°
1
Windvlaag: -0.6 m/s
71%
04:00
17°
1011.9 hPa
14%
15.5°
1
Windvlaag: 0.6 m/s
77%
05:00
17°
1012.2 hPa
63%
15.4°
1
Windvlaag: 4.2 m/s
72%
06:00
16°
1011.9 hPa
74%
15.5°
1
Windvlaag: 2.8 m/s
84%
07:00
17°
1012.3 hPa
82%
15.2°
1
Windvlaag: 2.6 m/s
86%
08:00
18°
1012.6 hPa
82%
17.0°
1
Windvlaag: 3.1 m/s
86%
09:00
19°
1011.8 hPa
82%
15.6°
1
Windvlaag: 1.5 m/s
86%
10:00
21°
1011.8 hPa
82%
11.9°
1
Windvlaag: 0.7 m/s
82%
11:00
22°
1011.6 hPa
74%
11.0°
2
Windvlaag: -0.1 m/s
77%
12:00
23°
1011.6 hPa
77%
7.6°
2
Windvlaag: -0.5 m/s
77%
13:00
23°
1011.4 hPa 2.6 mm
81%
6.1°
2
Windvlaag: -1.4 m/s
80% warningclass
14:00
23°
1011.3 hPa 2.7 mm
82%
6.9°
2
Windvlaag: -1.6 m/s
80% warningclass
15:00
23°
1011.2 hPa 3.2 mm
82%
6.9°
2
Windvlaag: -1.9 m/s
81% warningclass
16:00
22°
1011.0 hPa 3.6 mm
82%
5.6°
2
Windvlaag: -1.3 m/s
84% warningclass
17:00
20°
1011.1 hPa 4.0 mm
100%
13.6°
2
Windvlaag: 0.3 m/s
98% warningclass
18:00
20°
1011.2 hPa 2.9 mm
100%
13.8°
2
Windvlaag: 1 m/s
98% warningclass
19:00
19°
1011.3 hPa 6.1 mm
100%
17.4°
2
Windvlaag: 0.3 m/s
100% warningclass
20:00
18°
1012.8 hPa 16.2 mm
100%
18.1°
2
Windvlaag: 0.3 m/s
100% warningclass
21:00
17°
1013.4 hPa 24.2 mm
100%
16.6°
2
Windvlaag: 0.9 m/s
99%
22:00
17°
1013.2 hPa 15.1 mm
100%
15.8°
2
Windvlaag: 1.2 m/s
98%
23:00
17°
1013.7 hPa 21.4 mm
100%
16.2°
1
Windvlaag: 1.1 m/s
100%
 06:09     20:09    Daglengte: 14:00 Zaterdag 20 Aug
00:00
17°
1013.6 hPa 13.1 mm
100%
16.5°
1
Windvlaag: 0.2 m/s
100%
01:00
17°
1014.0 hPa 13.8 mm
100%
16.2°
1
Windvlaag: -0 m/s
100%
02:00
17°
1013.6 hPa 13.8 mm
100%
16.3°
1
Windvlaag: 0.4 m/s
98%
03:00
17°
1013.6 hPa 12.9 mm
100%
16.3°
1
Windvlaag: 0.8 m/s
94%
04:00
17°
1013.3 hPa 13.2 mm
100%
16.1°
1
Windvlaag: 1.9 m/s
100%
05:00
17°
1013.4 hPa 13.2 mm
100%
16.5°
1
Windvlaag: 2 m/s
99%
06:00
17°
1013.7 hPa 13.1 mm
100%
16.5°
1
Windvlaag: 1.3 m/s
100%
07:00
17°
1014.4 hPa 14.6 mm
100%
16.5°
2
Windvlaag: 0.6 m/s
100%
08:00
16°
1015.2 hPa 16.6 mm
100%
15.8°
2
Windvlaag: -1.5 m/s
100%
09:00
16°
1016.0 hPa 14.0 mm
100%
15.7°
2
Windvlaag: -1.3 m/s
98%
10:00
16°
1016.8 hPa 13.7 mm
100%
15.5°
2
Windvlaag: -0.8 m/s
100%
11:00
16°
1017.4 hPa 13.9 mm
97%
15.6°
2
Windvlaag: -0.2 m/s
99%
12:00
16°
1018.5 hPa 22.4 mm
100%
15.1°
2
Windvlaag: 11.9 m/s
98%
13:00
17°
1018.4 hPa 22.0 mm
100%
15.0°
1
Windvlaag: 8.4 m/s
100%
14:00
18°
1018.3 hPa
93%
14.4°
1
Windvlaag: 7.1 m/s
22%
15:00
19°
1017.8 hPa
33%
13.1°
1
Windvlaag: 7.7 m/s
66%
16:00
19°
1017.4 hPa
82%
12.3°
2
Windvlaag: 7.8 m/s
40%
17:00
20°
1017.2 hPa
84%
12.1°
2
Windvlaag: 7.8 m/s
21%
18:00
19°
1017.0 hPa
33%
12.6°
2
Windvlaag: 8.2 m/s
50%
19:00
18°
1017.3 hPa
80%
14.8°
1
Windvlaag: 7.6 m/s
71%
20:00
17°
1017.6 hPa
82%
16.1°
1
Windvlaag: 9.5 m/s
44%
21:00
19°
1015.6 hPa 70.8 mm
100%
18.2°
4
Windvlaag: 10.7 m/s
100%
22:00
18°
1015.8 hPa 71.3 mm
100%
17.4°
6
Windvlaag: 10.9 m/s
100%
23:00
18°
1016.0 hPa 71.8 mm
100%
16.5°
6
Windvlaag: 10.8 m/s
100%
Temp/Neerslag /Baro Onweer/Dauwpunt
    Temp Baro Neerslag Dauwpunt Wind Bewolking  
 06:07     20:12    Daglengte: 14:05 Morgen
02:00
18°
1013.0 hPa   16.1°
1
43%
05:00
17°
1012.9 hPa   14.7°
1
30%
08:00
19°
1012.5 hPa   15.4°
1
41%
11:00
26°
Voelt als: 25.8°
1011.1 hPa   4.9°
1
56%
14:00
29°
Voelt als: 28.1°
1010.3 hPa   10.0°
2
59%
17:00
29°
Voelt als: 28.0°
1008.9 hPa   11.6°
2
58%
20:00
24°
1009.9 hPa   14.7°
2
25%
23:00
20°
1011.0 hPa   16.8°
1
46%
 06:08     20:11    Daglengte: 14:03 Vrijdag 19 Aug
02:00
19°
1011.6 hPa   16.4°
1
52%
05:00
17°
1012.2 hPa   15.4°
1
72%
08:00
18°
1012.6 hPa   17.0°
1
86%
11:00
22°
1011.6 hPa   11.0°
2
77%
14:00
23°
1011.3 hPa 5.3 mm 6.9°
2
80% warningclass
17:00
20°
1011.1 hPa 10.8 mm 13.6°
2
98% warningclass
20:00
18°
1012.8 hPa 25.2 mm 18.1°
2
100% warningclass
23:00
17°
1013.7 hPa 60.7 mm 16.2°
1
100%
 06:09     20:09    Daglengte: 14:00 Zaterdag 20 Aug
02:00
17°
1013.6 hPa 40.6 mm 16.3°
1
98%
05:00
17°
1013.4 hPa 39.3 mm 16.5°
1
99%
08:00
16°
1015.2 hPa 44.3 mm 15.8°
2
100%
11:00
16°
1017.4 hPa 41.5 mm 15.6°
2
99%
14:00
18°
1018.3 hPa 44.4 mm 14.4°
1
22%
17:00
20°
1017.2 hPa   12.1°
2
21%
20:00
17°
1017.6 hPa   16.1°
1
44%
23:00
18°
1016.0 hPa 214.0 mm 16.5°
6
100%
 06:11     20:07    Daglengte: 13:56 Zondag 21 Aug
02:00
17°
1015.2 hPa 220.1 mm 16.3°
5
100%
05:00
16°
1017.2 hPa 33.8 mm 15.5°
1
1%
08:00
16°
1017.1 hPa 34.6 mm 15.7°
1
1%
11:00
18°
1016.3 hPa 36.3 mm 16.7°
2
1%
14:00
23°
1014.3 hPa 37.5 mm 15.7°
2
1%
17:00
23°
1013.4 hPa 37.6 mm 12.9°
3
1%
20:00
17°
1014.9 hPa 37.7 mm 13.9°
2
1%
23:00
17°
1015.2 hPa 37.8 mm 13.8°
1
1%
 06:12     20:05    Daglengte: 13:53 Maandag 22 Aug
02:00
16°
1016.0 hPa 38.2 mm 13.8°
1
1%
05:00
16°
1015.9 hPa 38.7 mm 14.6°
1
1%
08:00
16°
1017.3 hPa 40.2 mm 15.3°
1
1%
11:00
18°
1017.6 hPa 41.5 mm 15.6°
2
1%
14:00
21°
1016.7 hPa 42.3 mm 12.7°
2
1%
17:00
21°
1016.4 hPa 42.5 mm 14.0°
2
1%
20:00
16°
1017.8 hPa 43.1 mm 14.0°
1
1%
23:00
16°
1018.5 hPa 43.2 mm 13.5°
0
1%
 06:13     20:03    Daglengte: 13:50 Dinsdag 23 Aug
02:00
13°
1019.2 hPa 43.2 mm 11.5°
1
1%
05:00
12°
1019.6 hPa 43.2 mm 10.9°
1
0%
08:00
15°
1020.0 hPa 43.2 mm 13.1°
1
0%
11:00
21°
1018.9 hPa 43.3 mm 12.1°
2
0%
14:00
21°
1018.7 hPa 43.4 mm 12.1°
2
0%
17:00
21°
1018.3 hPa 43.4 mm 14.8°
2
1%
20:00
16°
1019.5 hPa 43.5 mm 13.9°
1
1%
23:00
14°
1020.1 hPa 43.5 mm 12.8°
2
1%
 06:15     20:01    Daglengte: 13:46 Woensdag 24 Aug
02:00
13°
1020.0 hPa 43.5 mm 12.1°
2
1%
05:00
13°
1019.5 hPa 43.5 mm 11.6°
2
1%
08:00
16°
1019.4 hPa 43.5 mm 12.9°
1
1%
11:00
22°
1018.3 hPa 43.5 mm 14.2°
1
1%
14:00
25°
1016.8 hPa 43.5 mm 15.2°
2
1%
17:00
24°
1016.8 hPa 43.7 mm 18.8°
2
1%
20:00
18°
1018.0 hPa 44.6 mm 17.5°
1
1%
23:00
17°
1019.1 hPa   16.3°
1
1%
 06:16     19:59    Daglengte: 13:43 Donderdag 25 Aug
02:00
16°
1019.2 hPa 89.6 mm 15.4°
2
1%
08:00
18°
1019.0 hPa 89.6 mm 16.2°
1
0%
14:00
27°
1016.5 hPa 89.7 mm 17.4°
2
0%
20:00
20°
1017.3 hPa 94.7 mm 18.9°
1
1%
 06:17     19:57    Daglengte: 13:40 Vrijdag 26 Aug
02:00
18°
1018.2 hPa 100.3 mm 17.0°
2
1%
08:00
19°
1017.9 hPa 103.4 mm 17.8°
1
1%
14:00
29°
1014.9 hPa 103.8 mm 17.5°
2
1%
20:00
19°
1017.1 hPa 113.5 mm 18.0°
2
1%
 06:19     19:56    Daglengte: 13:37 Zaterdag 27 Aug
02:00
18°
1017.0 hPa 118.7 mm 16.6°
3
1%
08:00
20°
1017.1 hPa 118.7 mm 17.2°
2
1%
14:00
30°
1015.4 hPa 118.8 mm 16.4°
1
1%
20:00
20°
1018.9 hPa 1.6 mm 16.4°
1
58%
 06:20     19:54    Daglengte: 13:34 Zondag 28 Aug
02:00
17°
1020.2 hPa 0.5 mm 14.7°
2
57%
08:00
18°
1020.2 hPa 0.2 mm 15.4°
1
51%
14:00
26°
1018.6 hPa 0.9 mm 16.8°
1
43%
20:00
20°
1019.4 hPa 1.9 mm 16.4°
1
57%
 06:21     19:52    Daglengte: 13:31 Maandag 29 Aug
02:00
17°
1020.6 hPa 1.5 mm 14.7°
1
58%
08:00
18°
1020.4 hPa 0.3 mm 15.4°
1
52%
14:00
25°
1018.8 hPa 0.6 mm 16.8°
1
52%
20:00
19°
1019.2 hPa 2.1 mm 15.9°
0
57%
 06:23     19:50    Daglengte: 13:27 Dinsdag 30 Aug
02:00
16°
1020.1 hPa 0.6 mm 14.1°
1
56%
08:00
17°
1019.9 hPa 0.5 mm 14.9°
1
56%
14:00
24°
1018.0 hPa 0.2 mm 16.0°
1
57%
20:00
18°
1018.1 hPa 1.7 mm 15.3°
0
72%
 06:24     19:48    Daglengte: 13:24 Woensdag 31 Aug
02:00
16°
1019.2 hPa 0.1 mm 14.0°
1
68%
08:00
17°
1019.0 hPa 0.6 mm 14.6°
1
59%
14:00
24°
1017.1 hPa 1.6 mm 15.9°
1
53%
20:00
18°
1017.4 hPa 2.8 mm 15.0°
0
62%
 06:26     19:46    Daglengte: 13:20 Donderdag 01 Sep
02:00
15°
1018.5 hPa 1.7 mm 13.1°
1
61%
08:00
16°
1018.7 hPa 1.2 mm 13.4°
1
55%
14:00
22°
1017.5 hPa 1.5 mm 14.3°
1
49%
20:00
17°
1018.0 hPa 1.6 mm 13.5°
0
57%
  CAPE Lifted Index Hail Supercell Tornado SRH 3km CL BTM PRES CL TOP PRES Swiss DWD icon SMHI TS
 06:07     20:12    Daglengte: 14:05 Morgen
00:00 179 J/kg -0.7 K 0 % 0 % 0 % 0 m²/s² 0 0 0.17 3
01:00 0 J/kg 1.1 K 0 % 0 % 0 % 0 m²/s² 0 0 2.18 3
02:00 0 J/kg 1.7 K 0 % 0 % 0 % 0 m²/s² 0 0 2.69 3
03:00 0 J/kg 2.0 K 0 % 0 % 0 % 0 m²/s² 0 0 3.2 3
04:00 0 J/kg 1.9 K 0 % 0 % 0 % 0 m²/s² 0 0 3.37 3
05:00 0 J/kg 1.4 K 0 % 0 % 0 % 0 m²/s² 0 0 3.71 3
06:00 1 J/kg 1.1 K 0 % 0 % 0 % 0 m²/s² 0 0 3.41 1
07:00 0 J/kg 1.0 K 0 % 0 % 0 % 0 m²/s² 0 0 3.1 3
08:00 84 J/kg 0.3 K 0 % 0 % 0 % 0 m²/s² 0 0 1.83 3
09:00 363 J/kg -1.0 K 0 % 0 % 0 % 0 m²/s² 0 0 0.71 3
10:00 666 J/kg -2.3 K 0 % 0 % 0 % 0 m²/s² 0 0 -0.71 3
11:00 1156 J/kg -4.1 K 0 % 0 % 0 % 0 m²/s² 0 0 -2.63 3
12:00 1633 J/kg -5.3 K 0 % 0 % 0 % 0 m²/s² 0 0 -3.83 3
13:00 1586 J/kg -5.1 K 0 % 0 % 0 % 0 m²/s² 0 0 -3.57 61
14:00 1969 J/kg -5.6 K 0 % 0 % 0 % 0 m²/s² 0 0 -4.46 3
15:00 2245 J/kg -6.4 K 0 % 0 % 0 % 0 m²/s² 0 0 -5.14 61
16:00 2160 J/kg -6.5 K 0 % 0 % 0 % 0 m²/s² 0 0 -4.16 61
17:00 2002 J/kg -6.7 K 0 % 0 % 0 % 0 m²/s² 0 0 -4.21 3
18:00 1121 J/kg -4.8 K 0 % 0 % 0 % 0 m²/s² 0 0 -2.25 3
19:00 1082 J/kg -4.8 K 0 % 0 % 0 % 0 m²/s² 0 0 -2.55 3
20:00 794 J/kg -4.0 K 0 % 0 % 0 % 0 m²/s² 0 0 -2.53 3
21:00 236 J/kg -1.7 K 0 % 0 % 0 % 0 m²/s² 0 0 0.01 3
22:00 145 J/kg -2.3 K 0 % 0 % 0 % 0 m²/s² 0 0 0.76 3
23:00 60 J/kg -1.6 K 0 % 0 % 0 % 0 m²/s² 0 0 -0.28 3
 06:08     20:11    Daglengte: 14:03 Vrijdag 19 Aug
00:00 1 J/kg -0.4 K 0 % 0 % 0 % 0 m²/s² 0 0 2.09 3
01:00 0 J/kg -3.5 K 0 % 0 % 0 % 0 m²/s² 0 0 -1.16 3
02:00 9 J/kg -3.0 K 0 % 0 % 0 % 0 m²/s² 0 0 -1.02 3
03:00 0 J/kg -3.4 K 0 % 0 % 0 % 0 m²/s² 0 0 -1.87 3
04:00 0 J/kg -3.5 K 0 % 0 % 0 % 0 m²/s² 0 0 -3.38 3
05:00 0 J/kg 2.3 K 0 % 0 % 0 % 0 m²/s² 0 0 2.42 3
06:00 0 J/kg 0.2 K 0 % 0 % 0 % 0 m²/s² 0 0 0.65 61
07:00 0 J/kg 0.4 K 0 % 0 % 0 % 0 m²/s² 0 0 0.52 63
08:00 0 J/kg 0.8 K 0 % 0 % 0 % 0 m²/s² 0 0 0.98 65
09:00 0 J/kg 2.2 K 0 % 0 % 0 % 0 m²/s² 0 0 3.13 65
10:00 0 J/kg -0.5 K 0 % 0 % 0 % 0 m²/s² 0 0 2.56 61
11:00 459 J/kg -2.5 K 0 % 0 % 0 % 0 m²/s² 0 0 0.74 3
12:00 915 J/kg -4.1 K 0 % 0 % 0 % 0 m²/s² 0 0 -0.8 80
13:00 1140 J/kg -4.5 K 0 % 0 % 0 % 0 m²/s² 0 0 -0.93 95
14:00 1318 J/kg -4.6 K 0 % 0 % 0 % 0 m²/s² 0 0 -2.41 80
15:00 1420 J/kg -5.7 K 0 % 0 % 0 % 0 m²/s² 0 0 -3.57 95
16:00 1335 J/kg -5.9 K 0 % 0 % 0 % 0 m²/s² 0 0 -3.02 95
17:00 1294 J/kg -5.2 K 0 % 0 % 0 % 0 m²/s² 0 0 -3.52 95
18:00 1076 J/kg -5.4 K 0 % 0 % 0 % 0 m²/s² 0 0 -4.77 80
19:00 775 J/kg -2.9 K 0 % 0 % 0 % 0 m²/s² 0 0 -2.81 95
20:00 563 J/kg -2.6 K 0 % 0 % 0 % 0 m²/s² 0 0 -2.33 63
21:00 1 J/kg 1.2 K 0 % 0 % 0 % 0 m²/s² 0 0 1.98 63
22:00 0 J/kg 0.9 K 0 % 0 % 0 % 0 m²/s² 0 0 2.58 63
23:00 0 J/kg 0.5 K 0 % 0 % 0 % 0 m²/s² 0 0 1.31 63
 06:09     20:09    Daglengte: 14:00 Zaterdag 20 Aug
00:00 0 J/kg 0.6 K 0 % 0 % 0 % 0 m²/s² 0 0 1.17 63
01:00 25 J/kg -0.6 K 0 % 0 % 0 % 0 m²/s² 0 0 -0.24 63
02:00 19 J/kg -1.6 K 0 % 0 % 0 % 0 m²/s² 0 0 -0.82 63
03:00 22 J/kg -1.3 K 0 % 0 % 0 % 0 m²/s² 0 0 -0.58 61
04:00 4 J/kg -1.2 K 0 % 0 % 0 % 0 m²/s² 0 0 -0.39 61
05:00 0 J/kg -1.4 K 0 % 0 % 0 % 0 m²/s² 0 0 -0.92 63
06:00 0 J/kg -1.4 K 0 % 0 % 0 % 0 m²/s² 0 0 -0.86 63
07:00 5 J/kg -1.3 K 0 % 0 % 0 % 0 m²/s² 0 0 -0.43 63
08:00 3 J/kg -0.2 K 0 % 0 % 0 % 0 m²/s² 0 0 0.07 63
09:00 3 J/kg 0.6 K 0 % 0 % 0 % 0 m²/s² 0 0 0.6 61
10:00 5 J/kg -0.2 K 0 % 0 % 0 % 0 m²/s² 0 0 -0.08 61
11:00 5 J/kg -0.5 K 0 % 0 % 0 % 0 m²/s² 0 0 -0.14 61
12:00 12 J/kg -0.1 K 0 % 0 % 0 % 0 m²/s² 0 0 0.17 61
13:00 14 J/kg 0.5 K 0 % 0 % 0 % 0 m²/s² 0 0 0.5 61
14:00 34 J/kg 0.8 K 0 % 0 % 0 % 0 m²/s² 0 0 0.98 3
15:00 69 J/kg 0.4 K 0 % 0 % 0 % 0 m²/s² 0 0 1.18 3
16:00 94 J/kg 0.2 K 0 % 0 % 0 % 0 m²/s² 0 0 0.83 3
17:00 139 J/kg -0.3 K 0 % 0 % 0 % 0 m²/s² 0 0 0.15 2
18:00 181 J/kg -0.6 K 0 % 0 % 0 % 0 m²/s² 0 0 0.03 3
19:00 228 J/kg -0.9 K 0 % 0 % 0 % 0 m²/s² 0 0 -0.72 3
20:00 385 J/kg -1.8 K 0 % 0 % 0 % 0 m²/s² 0 0 -1.8 3
21:00 517 J/kg -2.6 K 0 % 0 % 0 % 0 m²/s² 0 0 -1.88
22:00 224 J/kg -1.0 K 0 % 0 % 0 % 0 m²/s² 0 0 -0.34
23:00 86 J/kg -0.8 K 0 % 0 % 0 % 0 m²/s² 0 0 -0.14
Temp Baro Wind Neerslag
  EWN Forecast EWN WRFDA DWD ICON FMI HIRLAM MET Norway GFS
 06:07     20:12    Daglengte: 14:05 Morgen
02:00 18.4° 1013.0 hPa 1.1 m/s 0.0 mm 20.8° 1011.6 hPa 4.2 m/s 1.1 mm 18.2° 1012.3 hPa 1.0 m/s -2.0 mm 17.1° 1015.0 hPa 0.9 m/s 0.0 mm 19.1° 1011.8 hPa 2.5 m/s
05:00 16.8° 1012.9 hPa 1.1 m/s 0.0 mm 19.8° 1011.3 hPa 4.0 m/s 1.1 mm 16.7° 1012.2 hPa 1.0 m/s 0.0 mm 14.7° 1015.3 hPa 0.9 m/s 0.0 mm 18.1° 1012.4 hPa 1.9 m/s
08:00 19.4° 1012.5 hPa 0.9 m/s 0.0 mm 24.7° 1011.4 hPa 2.7 m/s 1.1 mm 18.8° 1012.2 hPa 0.8 m/s 0.0 mm 19.2° 1014.3 hPa 0.7 m/s 0.0 mm 20.9° 1013.4 hPa 1.1 m/s
11:00 26.3° 1011.1 hPa 0.6 m/s 0.0 mm 29.2° 1010.6 hPa 1.6 m/s 1.1 mm 24.0° 1010.7 hPa 0.1 m/s 0.0 mm 34.1° 1012.1 hPa 0.5 m/s 0.0 mm 25.9° 1012.4 hPa 1.5 m/s
14:00 29.3° 1010.3 hPa 1.7 m/s 0.0 mm 28.4° 1009.6 hPa 4.0 m/s 1.7 mm 23.9° 1010.6 hPa 1.2 m/s 0.3 mm 36.2° 1010.9 hPa 3.2 m/s 0.0 mm 26.4° 1010.5 hPa 2.5 m/s
17:00 28.8° 1008.9 hPa 1.7 m/s 0.0 mm 28.1° 1009.3 hPa 1.7 m/s 3.3 mm 22.8° 1008.9 hPa 0.6 m/s 0.5 mm 34.5° 1009.5 hPa 2.6 m/s 0.0 mm 25.0° 1010.4 hPa 2.1 m/s
20:00 23.9° 1009.9 hPa 1.5 m/s 0.0 mm 23.2° 1008.9 hPa 2.4 m/s 3.4 mm 19.9° 1009.9 hPa 1.3 m/s 0.0 mm 26.6° 1010.5 hPa 1.3 m/s 0.0 mm 20.6° 1010.7 hPa 0.8 m/s
23:00 19.6° 1011.0 hPa 1.0 m/s 0.0 mm 24.5° 1009.4 hPa 4.0 m/s 3.4 mm 17.1° 1010.6 hPa 0.5 m/s 0.0 mm 19.2° 1012.2 hPa 1.1 m/s 0.0 mm 18.4° 1012.1 hPa 1.0 m/s
 06:08     20:11    Daglengte: 14:03 Vrijdag 19 Aug
02:00 18.7° 1011.6 hPa 0.6 m/s 0.0 mm 22.7° 1007.1 hPa 1.0 m/s 3.5 mm 16.7° 1011.1 hPa 0.3 m/s 0.0 mm 18.4° 1012.4 hPa 0.9 m/s 0.0 mm 18.1° 1012.2 hPa 1.4 m/s
05:00 16.6° 1012.2 hPa 1.2 m/s 0.0 mm 18.9° 1012.8 hPa 7.5 m/s 8.1 mm 16.0° 1011.4 hPa 0.9 m/s 0.0 mm 15.9° 1012.9 hPa 0.5 m/s 0.0 mm 17.5° 1011.1 hPa 0.5 m/s
08:00 18.4° 1012.6 hPa 1.4 m/s 0.0 mm 19.5° 1011.1 hPa 10.6 m/s 23.6 mm 16.2° 1012.1 hPa 0.6 m/s 18.7 mm 19.7° 1012.8 hPa 0.4 m/s 0.0 mm 19.0° 1011.7 hPa 0.4 m/s
11:00 22.3° 1011.6 hPa 1.7 m/s 0.0 mm 26.2° 1007.2 hPa 5.2 m/s 31.7 mm 18.1° 1012.1 hPa 1.1 m/s 11.5 mm 30.2° 1011.6 hPa 1.3 m/s 0.0 mm 21.8° 1011.2 hPa 1.8 m/s
14:00 22.5° 1011.3 hPa 2.5 m/s 5.3 mm 25.5° 1008.2 hPa 4.4 m/s 31.9 mm 18.4° 1012.6 hPa 1.3 m/s 1.9 mm 33.5° 1010.8 hPa 3.5 m/s 0.0 mm 20.9° 1011.5 hPa 1.8 m/s
17:00 20.0° 1011.1 hPa 1.7 m/s 10.8 mm 25.2° 1008.8 hPa 3.0 m/s 34.1 mm 17.5° 1013.2 hPa 1.6 m/s 5.3 mm 21.9° 1011.3 hPa 2.1 m/s
20:00 18.5° 1012.8 hPa 1.5 m/s 25.2 mm 19.5° 1012.8 hPa 4.1 m/s 69.1 mm 16.3° 1014.7 hPa 1.1 m/s 5.5 mm 18.4° 1013.5 hPa 2.0 m/s
23:00 17.3° 1013.7 hPa 1.5 m/s 60.7 mm 17.6° 1013.4 hPa 4.5 m/s 173.1 mm 16.1° 1016.0 hPa 1.1 m/s 18.9 mm 16.6° 1015.0 hPa 1.0 m/s
 06:09     20:09    Daglengte: 14:00 Zaterdag 20 Aug
02:00 17.1° 1013.6 hPa 0.9 m/s 40.6 mm 18.0° 1012.9 hPa 3.6 m/s 174.2 mm 15.3° 1017.0 hPa 0.5 m/s 13.6 mm 17.1° 1015.4 hPa 1.4 m/s
05:00 16.7° 1013.4 hPa 1.0 m/s 39.3 mm 17.4° 1012.6 hPa 3.4 m/s 175.6 mm 14.9° 1017.4 hPa 0.7 m/s 8.8 mm 16.7° 1016.2 hPa 2.0 m/s
08:00 16.3° 1015.2 hPa 2.3 m/s 44.3 mm 17.2° 1013.8 hPa 5.7 m/s 183.1 mm 15.2° 1018.5 hPa 1.7 m/s 11.8 mm 16.4° 1017.4 hPa 1.7 m/s
11:00 16.1° 1017.4 hPa 2.0 m/s 41.5 mm 17.4° 1015.4 hPa 5.1 m/s 191.5 mm 16.0° 1019.3 hPa 0.8 m/s 3.3 mm 17.2° 1017.8 hPa 1.1 m/s
14:00 18.0° 1018.3 hPa 0.9 m/s 44.4 mm 19.8° 1016.3 hPa 3.6 m/s 196.8 mm 17.6° 1018.8 hPa 0.2 m/s 1.3 mm 18.3° 1017.9 hPa 0.8 m/s
17:00 19.5° 1017.2 hPa 1.9 m/s 0.0 mm 23.1° 1015.2 hPa 5.1 m/s 198.2 mm 18.6° 1017.7 hPa 1.1 m/s 0.0 mm 20.0° 1016.8 hPa 0.5 m/s
20:00 17.3° 1017.6 hPa 1.3 m/s 0.0 mm 19.1° 1015.0 hPa 3.3 m/s 200.1 mm 16.9° 1018.3 hPa 0.8 m/s 0.0 mm 16.8° 1017.9 hPa 1.7 m/s
23:00 17.7° 1016.0 hPa 6.1 m/s 214.0 mm 17.7° 1016.0 hPa 6.1 m/s 214.0 mm 15.3° 1018.8 hPa 1.8 m/s
 06:11     20:07    Daglengte: 13:56 Zondag 21 Aug
02:00 16.8° 1015.2 hPa 5.3 m/s 220.1 mm 16.8° 1015.2 hPa 5.3 m/s 220.1 mm 15.9° 1017.5 hPa 1.2 m/s
05:00 15.8° 1017.2 hPa 1.2 m/s 33.8 mm 15.8° 1017.2 hPa 1.2 m/s 33.8 mm
08:00 16.4° 1017.1 hPa 1.3 m/s 34.6 mm 16.4° 1017.1 hPa 1.3 m/s 34.6 mm
11:00 18.4° 1016.3 hPa 1.6 m/s 36.3 mm 18.4° 1016.3 hPa 1.6 m/s 36.3 mm
14:00 22.5° 1014.3 hPa 1.8 m/s 37.5 mm 22.5° 1014.3 hPa 1.8 m/s 37.5 mm
17:00 22.9° 1013.4 hPa 2.7 m/s 37.6 mm 22.9° 1013.4 hPa 2.7 m/s 37.6 mm
20:00 17.1° 1014.9 hPa 1.5 m/s 37.7 mm 17.1° 1014.9 hPa 1.5 m/s 37.7 mm
23:00 17.4° 1015.2 hPa 0.9 m/s 37.8 mm 17.4° 1015.2 hPa 0.9 m/s 37.8 mm
 06:12     20:05    Daglengte: 13:53 Maandag 22 Aug
02:00 15.8° 1016.0 hPa 1.1 m/s 38.2 mm 15.8° 1016.0 hPa 1.1 m/s 38.2 mm
05:00 16.1° 1015.9 hPa 0.7 m/s 38.7 mm 16.1° 1015.9 hPa 0.7 m/s 38.7 mm
08:00 15.6° 1017.3 hPa 1.0 m/s 40.2 mm 15.6° 1017.3 hPa 1.0 m/s 40.2 mm
11:00 17.9° 1017.6 hPa 1.6 m/s 41.5 mm 17.9° 1017.6 hPa 1.6 m/s 41.5 mm
14:00 21.3° 1016.7 hPa 2.2 m/s 42.3 mm 21.3° 1016.7 hPa 2.2 m/s 42.3 mm
17:00 21.5° 1016.4 hPa 2.3 m/s 42.5 mm 21.5° 1016.4 hPa 2.3 m/s 42.5 mm
20:00 15.7° 1017.8 hPa 1.3 m/s 43.1 mm 15.7° 1017.8 hPa 1.3 m/s 43.1 mm
23:00 15.5° 1018.5 hPa 0.4 m/s 43.2 mm 15.5° 1018.5 hPa 0.4 m/s 43.2 mm
 06:13     20:03    Daglengte: 13:50 Dinsdag 23 Aug
02:00 13.3° 1019.2 hPa 0.8 m/s 43.2 mm 13.3° 1019.2 hPa 0.8 m/s 43.2 mm
05:00 12.3° 1019.6 hPa 1.1 m/s 43.2 mm 12.3° 1019.6 hPa 1.1 m/s 43.2 mm
08:00 15.5° 1020.0 hPa 0.6 m/s 43.2 mm 15.5° 1020.0 hPa 0.6 m/s 43.2 mm
11:00 20.8° 1018.9 hPa 2.0 m/s 43.3 mm 20.8° 1018.9 hPa 2.0 m/s 43.3 mm
14:00 21.2° 1018.7 hPa 2.0 m/s 43.4 mm 21.2° 1018.7 hPa 2.0 m/s 43.4 mm
17:00 21.1° 1018.3 hPa 2.0 m/s 43.4 mm 21.1° 1018.3 hPa 2.0 m/s 43.4 mm
20:00 16.1° 1019.5 hPa 1.2 m/s 43.5 mm 16.1° 1019.5 hPa 1.2 m/s 43.5 mm
23:00 13.9° 1020.1 hPa 1.5 m/s 43.5 mm 13.9° 1020.1 hPa 1.5 m/s 43.5 mm
 06:15     20:01    Daglengte: 13:46 Woensdag 24 Aug
02:00 13.2° 1020.0 hPa 1.7 m/s 43.5 mm 13.2° 1020.0 hPa 1.7 m/s 43.5 mm
05:00 12.8° 1019.5 hPa 1.7 m/s 43.5 mm 12.8° 1019.5 hPa 1.7 m/s 43.5 mm
08:00 16.0° 1019.4 hPa 0.8 m/s 43.5 mm 16.0° 1019.4 hPa 0.8 m/s 43.5 mm
11:00 21.7° 1018.3 hPa 1.3 m/s 43.5 mm 21.7° 1018.3 hPa 1.3 m/s 43.5 mm
14:00 24.7° 1016.8 hPa 2.2 m/s 43.5 mm 24.7° 1016.8 hPa 2.2 m/s 43.5 mm
17:00 23.6° 1016.8 hPa 2.2 m/s 43.7 mm 23.7° 1016.8 hPa 2.2 m/s 43.7 mm
20:00 18.2° 1018.0 hPa 0.8 m/s 44.6 mm 18.2° 1018.0 hPa 0.8 m/s 44.6 mm
23:00 16.9° 1019.1 hPa 1.1 m/s 44.8 mm 16.9° 1019.1 hPa 1.1 m/s 44.8 mm
 06:16     19:59    Daglengte: 13:43 Donderdag 25 Aug
02:00 16.1° 1019.2 hPa 1.5 m/s 44.8 mm 16.1° 1019.2 hPa 1.5 m/s 44.8 mm
08:00 18.1° 1019.0 hPa 0.8 m/s 44.8 mm 18.1° 1019.0 hPa 0.8 m/s 44.8 mm
14:00 27.4° 1016.5 hPa 2.0 m/s 44.9 mm 27.4° 1016.5 hPa 2.0 m/s 44.8 mm
20:00 20.4° 1017.3 hPa 1.4 m/s 48.7 mm 20.4° 1017.3 hPa 1.4 m/s 48.7 mm
 06:17     19:57    Daglengte: 13:40 Vrijdag 26 Aug
02:00 18.1° 1018.2 hPa 1.9 m/s 50.3 mm 18.1° 1018.2 hPa 2.0 m/s 50.3 mm
08:00 19.3° 1017.9 hPa 1.3 m/s 51.9 mm 19.3° 1017.9 hPa 1.3 m/s 51.9 mm
14:00 28.9° 1014.9 hPa 1.8 m/s 52.0 mm 28.9° 1014.9 hPa 1.8 m/s 52.0 mm
20:00 19.0° 1017.1 hPa 2.0 m/s 59.3 mm 19.0° 1017.1 hPa 2.0 m/s 59.3 mm
 06:19     19:56    Daglengte: 13:37 Zaterdag 27 Aug
02:00 17.7° 1017.0 hPa 2.5 m/s 59.3 mm 17.7° 1017.0 hPa 2.5 m/s 59.3 mm
08:00 19.6° 1017.1 hPa 1.9 m/s 59.3 mm 19.6° 1017.1 hPa 1.9 m/s 59.3 mm
14:00 29.6° 1015.4 hPa 1.5 m/s 59.4 mm 29.6° 1015.4 hPa 1.5 m/s 59.4 mm
20:00 19.7° 1018.9 hPa 0.8 m/s 1.6 mm
 06:20     19:54    Daglengte: 13:34 Zondag 28 Aug
02:00 16.7° 1020.2 hPa 1.5 m/s 0.5 mm
08:00 17.9° 1020.2 hPa 1.1 m/s 0.2 mm
14:00 26.1° 1018.6 hPa 1.2 m/s 0.9 mm
20:00 19.7° 1019.4 hPa 0.6 m/s 1.9 mm
 06:21     19:52    Daglengte: 13:31 Maandag 29 Aug
02:00 16.7° 1020.6 hPa 1.3 m/s 1.5 mm
08:00 17.7° 1020.4 hPa 0.9 m/s 0.3 mm
14:00 25.0° 1018.8 hPa 1.1 m/s 0.6 mm
20:00 18.7° 1019.2 hPa 0.2 m/s 2.1 mm
 06:23     19:50    Daglengte: 13:27 Dinsdag 30 Aug
02:00 16.1° 1020.1 hPa 1.3 m/s 0.6 mm
08:00 17.0° 1019.9 hPa 0.8 m/s 0.5 mm
14:00 24.2° 1018.0 hPa 1.1 m/s 0.2 mm
20:00 18.5° 1018.1 hPa 0.4 m/s 1.7 mm
 06:24     19:48    Daglengte: 13:24 Woensdag 31 Aug
02:00 15.8° 1019.2 hPa 1.0 m/s 0.1 mm
08:00 16.6° 1019.0 hPa 0.7 m/s 0.6 mm
14:00 23.7° 1017.1 hPa 1.3 m/s 1.6 mm
20:00 17.9° 1017.4 hPa 0.2 m/s 2.8 mm
 06:26     19:46    Daglengte: 13:20 Donderdag 01 Sep
02:00 15.1° 1018.5 hPa 1.0 m/s 1.7 mm
08:00 15.7° 1018.7 hPa 0.7 m/s 1.2 mm
14:00 22.3° 1017.5 hPa 1.1 m/s 1.5 mm
20:00 16.8° 1018.0 hPa 0.3 m/s 1.6 mm
FMI Hirlam - 7.5 km EWN WRFDA - 12 km DWD ICON - 7 km GFS - 25 km Basiskaart






























































Updatetijd (Europe/Amsterdam) Resolutie Lengte Stap
FMI Hirlam 19:15, 01:15, 07:15, 13:15 7.5 km 49h 1h
EWN WRFDA 22:30, 04:30, 10:30, 16:30 12 km 73h 1h
DWD ICON 18:00, 00:00, 06:00, 12:00 7 km 75h 1h
GFS 20:00, 02:00, 08:00, 14:00 25 km 237h 3h
30+ mm
25-30 mm
20-25 mm
15-20 mm
10-15 mm
6-10 mm
4-6 mm
2-4 mm
1-2 mm
0.5-1 mm
0.2-0.5 mm
0.1-0.2 mm
30+ mm
25-30 mm
20-25 mm
15-20 mm
10-15 mm
6-10 mm
4-6 mm
2-4 mm
1-2 mm
0.5-1 mm
0.2-0.5 mm
0.1-0.2 mm
Sneeuwval
Natte sneeuw
Hagel
Vorst
30+ mm
25-30 mm
20-25 mm
15-20 mm
10-15 mm
6-10 mm
4-6 mm
2-4 mm
1-2 mm
0.5-1 mm
0.2-0.5 mm
0.1-0.2 mm
Sneeuwval
Natte sneeuw
Hagel
Vorst
Onweer
50 mm
40 mm
30 mm
26 mm
22 mm
18 mm
14 mm
10 mm
9 mm
8 mm
7 mm
6 mm
5 mm
4.5 mm
4 mm
3.5 mm
3 mm
2.5 mm
2 mm
1.5 mm
1 mm
0.8 mm
0.6 mm
0.4 mm
0.2 mm
0.05 mm
35°
30°
25°
20°
15°
10°
-5°
-10°
-15°
-20°
-25°